Time,TemperatureF,DewpointF,PressureIn,WindDirection,WindDirectionDegrees,WindSpeedMPH,WindSpeedGustMPH,Humidity,HourlyPrecipIn,Conditions,Clouds,dailyrainin,SoftwareType,DateUTC
2013-10-12 00:01:00,47.0,39.5,30.14,SW,225,0.0,0.0,75,0.00,,---,0.00,VWS V14.01,2013-10-12 04:01:00,
2013-10-12 00:03:00,47.0,39.8,30.15,SW,225,0.0,0.0,76,0.00,,---,0.00,VWS V14.01,2013-10-12 04:03:00,
2013-10-12 00:09:00,47.0,40.2,30.14,SW,225,0.0,1.0,77,0.00,,---,0.00,VWS V14.01,2013-10-12 04:09:00,
2013-10-12 00:14:00,47.0,40.2,30.14,SW,225,1.0,1.0,77,0.00,,---,0.00,VWS V14.01,2013-10-12 04:14:00,
2013-10-12 00:19:00,47.0,40.5,30.14,SW,225,1.0,1.0,78,0.00,,---,0.00,VWS V14.01,2013-10-12 04:19:00,
2013-10-12 00:24:00,47.0,40.8,30.14,SW,225,0.0,1.0,79,0.00,,---,0.00,VWS V14.01,2013-10-12 04:24:00,
2013-10-12 00:29:00,46.0,39.9,30.14,SW,225,0.0,1.0,79,0.00,,---,0.00,VWS V14.01,2013-10-12 04:29:00,
2013-10-12 00:34:00,46.0,40.2,30.14,SW,225,0.0,1.0,80,0.00,,---,0.00,VWS V14.01,2013-10-12 04:34:00,
2013-10-12 00:39:00,46.0,40.5,30.15,SE,135,0.0,1.0,81,0.00,,---,0.00,VWS V14.01,2013-10-12 04:39:00,
2013-10-12 00:44:00,45.0,39.8,30.15,SE,135,0.0,1.0,82,0.00,,---,0.00,VWS V14.01,2013-10-12 04:44:00,
2013-10-12 00:50:00,45.0,39.8,30.15,SE,135,0.0,1.0,82,0.00,,---,0.00,VWS V14.01,2013-10-12 04:50:00,
2013-10-12 00:55:00,45.0,40.2,30.15,SE,135,0.0,1.0,83,0.00,,---,0.00,VWS V14.01,2013-10-12 04:55:00,
2013-10-12 01:00:00,45.0,40.2,30.15,SE,135,0.0,1.0,83,0.00,,---,0.00,VWS V14.01,2013-10-12 05:00:00,
2013-10-12 01:05:00,45.0,40.2,30.15,SE,135,0.0,1.0,83,0.00,,---,0.00,VWS V14.01,2013-10-12 05:05:00,
2013-10-12 01:10:00,45.0,40.2,30.15,SE,135,0.0,1.0,83,0.00,,---,0.00,VWS V14.01,2013-10-12 05:10:00,
2013-10-12 01:15:00,45.0,40.5,30.15,SE,135,0.0,1.0,84,0.00,,---,0.00,VWS V14.01,2013-10-12 05:15:00,
2013-10-12 01:20:00,44.0,39.5,30.15,SW,225,1.0,1.0,84,0.00,,---,0.00,VWS V14.01,2013-10-12 05:20:00,
2013-10-12 01:25:00,44.0,39.2,30.15,SW,225,1.0,1.0,83,0.00,,---,0.00,VWS V14.01,2013-10-12 05:25:00,
2013-10-12 01:30:00,44.0,39.2,30.15,SW,225,0.0,1.0,83,0.00,,---,0.00,VWS V14.01,2013-10-12 05:30:00,
2013-10-12 01:36:00,44.0,39.2,30.15,SW,225,0.0,1.0,83,0.00,,---,0.00,VWS V14.01,2013-10-12 05:36:00,
2013-10-12 01:41:00,44.0,39.2,30.15,SW,225,0.0,0.0,83,0.00,,---,0.00,VWS V14.01,2013-10-12 05:41:00,
2013-10-12 01:46:00,44.0,39.2,30.15,SW,225,0.0,0.0,83,0.00,,---,0.00,VWS V14.01,2013-10-12 05:46:00,
2013-10-12 01:51:00,44.0,39.5,30.15,SE,135,1.0,1.0,84,0.00,,---,0.00,VWS V14.01,2013-10-12 05:51:00,
2013-10-12 01:56:00,44.0,39.5,30.15,SSE,158,0.0,1.0,84,0.00,,---,0.00,VWS V14.01,2013-10-12 05:56:00,
2013-10-12 02:01:00,44.0,39.8,30.15,SSE,158,0.0,0.0,85,0.00,,---,0.00,VWS V14.01,2013-10-12 06:01:00,
2013-10-12 02:06:00,44.0,39.8,30.16,SW,225,1.0,1.0,85,0.00,,---,0.00,VWS V14.01,2013-10-12 06:06:00,
2013-10-12 02:11:00,44.0,39.5,30.16,West,270,0.0,2.0,84,0.00,,---,0.00,VWS V14.01,2013-10-12 06:11:00,
2013-10-12 02:17:00,44.0,39.5,30.16,West,270,0.0,2.0,84,0.00,,---,0.00,VWS V14.01,2013-10-12 06:17:00,
2013-10-12 02:22:00,44.0,39.8,30.16,West,270,0.0,0.0,85,0.00,,---,0.00,VWS V14.01,2013-10-12 06:22:00,
2013-10-12 02:27:00,44.0,39.8,30.16,SSE,158,1.0,1.0,85,0.00,,---,0.00,VWS V14.01,2013-10-12 06:27:00,
2013-10-12 02:32:00,44.0,40.1,30.15,SE,135,1.0,1.0,86,0.00,,---,0.00,VWS V14.01,2013-10-12 06:32:00,
2013-10-12 02:37:00,43.0,39.1,30.16,SE,135,0.0,1.0,86,0.00,,---,0.00,VWS V14.01,2013-10-12 06:37:00,
2013-10-12 02:42:00,43.0,39.1,30.16,SE,135,0.0,0.0,86,0.00,,---,0.00,VWS V14.01,2013-10-12 06:42:00,
2013-10-12 02:47:00,43.0,39.1,30.15,SE,135,0.0,0.0,86,0.00,,---,0.00,VWS V14.01,2013-10-12 06:47:00,
2013-10-12 02:52:00,43.0,39.4,30.15,SE,135,1.0,1.0,87,0.00,,---,0.00,VWS V14.01,2013-10-12 06:52:00,
2013-10-12 02:57:00,43.0,39.4,30.15,SE,135,1.0,1.0,87,0.00,,---,0.00,VWS V14.01,2013-10-12 06:57:00,
2013-10-12 03:02:00,43.0,39.7,30.15,SE,135,0.0,0.0,88,0.00,,---,0.00,VWS V14.01,2013-10-12 07:02:00,
2013-10-12 03:07:00,43.0,39.7,30.15,South,180,0.0,0.0,88,0.00,,---,0.00,VWS V14.01,2013-10-12 07:07:00,
2013-10-12 03:13:00,43.0,39.4,30.15,SW,225,0.0,0.0,87,0.00,,---,0.00,VWS V14.01,2013-10-12 07:13:00,
2013-10-12 03:18:00,43.0,39.4,30.15,SW,225,0.0,0.0,87,0.00,,---,0.00,VWS V14.01,2013-10-12 07:18:00,
2013-10-12 03:23:00,43.0,39.4,30.15,SW,225,0.0,0.0,87,0.00,,---,0.00,VWS V14.01,2013-10-12 07:23:00,
2013-10-12 03:28:00,43.0,39.4,30.15,SW,225,0.0,0.0,87,0.00,,---,0.00,VWS V14.01,2013-10-12 07:28:00,
2013-10-12 03:33:00,43.0,39.7,30.15,SW,225,0.0,0.0,88,0.00,,---,0.00,VWS V14.01,2013-10-12 07:33:00,
2013-10-12 03:38:00,43.0,39.7,30.15,SW,225,0.0,0.0,88,0.00,,---,0.00,VWS V14.01,2013-10-12 07:38:00,
2013-10-12 03:43:00,43.0,39.7,30.15,SW,225,0.0,0.0,88,0.00,,---,0.00,VWS V14.01,2013-10-12 07:43:00,
2013-10-12 03:48:00,43.0,39.7,30.16,SW,225,0.0,0.0,88,0.00,,---,0.00,VWS V14.01,2013-10-12 07:48:00,
2013-10-12 03:53:00,43.0,39.4,30.16,SW,225,0.0,0.0,87,0.00,,---,0.00,VWS V14.01,2013-10-12 07:53:00,
2013-10-12 03:58:00,43.0,39.4,30.15,SW,225,0.0,0.0,87,0.00,,---,0.00,VWS V14.01,2013-10-12 07:58:00,
2013-10-12 04:04:00,43.0,39.7,30.15,SW,225,0.0,0.0,88,0.00,,---,0.00,VWS V14.01,2013-10-12 08:04:00,
2013-10-12 04:09:00,43.0,39.7,30.15,SW,225,0.0,0.0,88,0.00,,---,0.00,VWS V14.01,2013-10-12 08:09:00,
2013-10-12 04:14:00,43.0,39.7,30.16,SW,225,0.0,0.0,88,0.00,,---,0.00,VWS V14.01,2013-10-12 08:14:00,
2013-10-12 04:19:00,43.0,39.7,30.16,SSW,202,1.0,1.0,88,0.00,,---,0.00,VWS V14.01,2013-10-12 08:19:00,
2013-10-12 04:24:00,43.0,39.7,30.16,SSE,158,0.0,1.0,88,0.00,,---,0.00,VWS V14.01,2013-10-12 08:24:00,
2013-10-12 04:29:00,43.0,39.7,30.16,SSE,158,0.0,1.0,88,0.00,,---,0.00,VWS V14.01,2013-10-12 08:29:00,
2013-10-12 04:34:00,43.0,39.7,30.16,SSE,158,0.0,1.0,88,0.00,,---,0.00,VWS V14.01,2013-10-12 08:34:00,
2013-10-12 04:39:00,43.0,40.0,30.16,SSE,158,0.0,1.0,89,0.00,,---,0.00,VWS V14.01,2013-10-12 08:39:00,
2013-10-12 04:44:00,43.0,40.0,30.16,SSE,158,0.0,0.0,89,0.00,,---,0.00,VWS V14.01,2013-10-12 08:44:00,
2013-10-12 04:49:00,43.0,40.0,30.16,SSE,158,0.0,0.0,89,0.00,,---,0.00,VWS V14.01,2013-10-12 08:49:00,
2013-10-12 04:54:00,43.0,40.0,30.16,SSE,158,0.0,0.0,89,0.00,,---,0.00,VWS V14.01,2013-10-12 08:54:00,
2013-10-12 05:00:00,43.0,40.0,30.17,SSE,158,0.0,0.0,89,0.00,,---,0.00,VWS V14.01,2013-10-12 09:00:00,
2013-10-12 05:05:00,43.0,40.3,30.17,SSE,158,0.0,0.0,90,0.00,,---,0.00,VWS V14.01,2013-10-12 09:05:00,
2013-10-12 05:10:00,43.0,40.3,30.17,SSE,158,0.0,0.0,90,0.00,,---,0.00,VWS V14.01,2013-10-12 09:10:00,
2013-10-12 05:15:00,43.0,40.3,30.17,SSE,158,0.0,0.0,90,0.00,,---,0.00,VWS V14.01,2013-10-12 09:15:00,
2013-10-12 05:20:00,43.0,40.3,30.17,SSE,158,0.0,0.0,90,0.00,,---,0.00,VWS V14.01,2013-10-12 09:20:00,
2013-10-12 05:25:00,43.0,40.3,30.17,SSE,158,0.0,0.0,90,0.00,,---,0.00,VWS V14.01,2013-10-12 09:25:00,
2013-10-12 05:30:00,43.0,40.3,30.17,SSE,158,0.0,0.0,90,0.00,,---,0.00,VWS V14.01,2013-10-12 09:30:00,
2013-10-12 05:35:00,43.0,40.3,30.18,SSE,158,0.0,0.0,90,0.00,,---,0.00,VWS V14.01,2013-10-12 09:35:00,
2013-10-12 05:40:00,43.0,40.3,30.18,SSE,158,0.0,0.0,90,0.00,,---,0.00,VWS V14.01,2013-10-12 09:40:00,
2013-10-12 05:45:00,43.0,40.3,30.18,SSE,158,0.0,0.0,90,0.00,,---,0.00,VWS V14.01,2013-10-12 09:45:00,
2013-10-12 05:50:00,43.0,40.6,30.18,SSE,158,0.0,0.0,91,0.00,,---,0.00,VWS V14.01,2013-10-12 09:50:00,
2013-10-12 05:55:00,43.0,40.6,30.18,SSE,158,0.0,0.0,91,0.00,,---,0.00,VWS V14.01,2013-10-12 09:55:00,
2013-10-12 06:00:00,43.0,40.6,30.18,SSE,158,0.0,0.0,91,0.00,,---,0.00,VWS V14.01,2013-10-12 10:00:00,
2013-10-12 06:06:00,43.0,40.6,30.18,SSE,158,0.0,0.0,91,0.00,,---,0.00,VWS V14.01,2013-10-12 10:06:00,
2013-10-12 06:11:00,43.0,40.6,30.19,SSE,158,0.0,0.0,91,0.00,,---,0.00,VWS V14.01,2013-10-12 10:11:00,
2013-10-12 06:16:00,43.0,40.6,30.19,SSE,158,0.0,0.0,91,0.00,,---,0.00,VWS V14.01,2013-10-12 10:16:00,
2013-10-12 06:21:00,43.0,40.6,30.19,SSE,158,0.0,0.0,91,0.00,,---,0.00,VWS V14.01,2013-10-12 10:21:00,
2013-10-12 06:26:00,43.0,40.6,30.19,SSE,158,0.0,0.0,91,0.00,,---,0.00,VWS V14.01,2013-10-12 10:26:00,
2013-10-12 06:31:00,43.0,40.6,30.19,SSE,158,0.0,0.0,91,0.00,,---,0.00,VWS V14.01,2013-10-12 10:31:00,
2013-10-12 06:36:00,43.0,40.6,30.19,SSE,158,0.0,0.0,91,0.00,,---,0.00,VWS V14.01,2013-10-12 10:36:00,
2013-10-12 06:41:00,43.0,40.6,30.19,SSE,158,0.0,0.0,91,0.00,,---,0.00,VWS V14.01,2013-10-12 10:41:00,
2013-10-12 06:46:00,43.0,40.6,30.19,SSE,158,0.0,0.0,91,0.00,,---,0.00,VWS V14.01,2013-10-12 10:46:00,
2013-10-12 06:51:00,43.0,40.6,30.19,SSE,158,0.0,0.0,91,0.00,,---,0.00,VWS V14.01,2013-10-12 10:51:00,
2013-10-12 06:56:00,43.0,40.6,30.19,SSE,158,0.0,0.0,91,0.00,,---,0.00,VWS V14.01,2013-10-12 10:56:00,
2013-10-12 07:01:00,43.0,40.6,30.19,SSE,158,0.0,0.0,91,0.00,,---,0.00,VWS V14.01,2013-10-12 11:01:00,
2013-10-12 07:06:00,43.0,40.6,30.19,SSE,158,0.0,0.0,91,0.00,,---,0.00,VWS V14.01,2013-10-12 11:06:00,
2013-10-12 07:11:00,43.0,40.8,30.20,SSE,158,0.0,0.0,92,0.00,,---,0.00,VWS V14.01,2013-10-12 11:11:00,
2013-10-12 07:17:00,43.0,40.8,30.20,SSE,158,0.0,0.0,92,0.00,,---,0.00,VWS V14.01,2013-10-12 11:17:00,
2013-10-12 07:22:00,43.0,40.8,30.20,SSE,158,0.0,0.0,92,0.00,,---,0.00,VWS V14.01,2013-10-12 11:22:00,
2013-10-12 07:27:00,43.0,40.8,30.20,SSE,158,0.0,0.0,92,0.00,,---,0.00,VWS V14.01,2013-10-12 11:27:00,
2013-10-12 07:32:00,43.0,40.8,30.20,SSE,158,0.0,0.0,92,0.00,,---,0.00,VWS V14.01,2013-10-12 11:32:00,
2013-10-12 07:37:00,43.0,40.8,30.20,SSE,158,0.0,0.0,92,0.00,,---,0.00,VWS V14.01,2013-10-12 11:37:00,
2013-10-12 07:42:00,43.0,40.8,30.21,SSE,158,0.0,0.0,92,0.00,,---,0.00,VWS V14.01,2013-10-12 11:42:00,
2013-10-12 07:47:00,43.0,40.8,30.20,SSE,158,0.0,0.0,92,0.00,,---,0.00,VWS V14.01,2013-10-12 11:47:00,
2013-10-12 07:52:00,43.0,40.8,30.20,SSE,158,0.0,0.0,92,0.00,,---,0.00,VWS V14.01,2013-10-12 11:52:00,
2013-10-12 07:57:00,44.0,41.8,30.20,SSE,158,0.0,0.0,92,0.00,,---,0.00,VWS V14.01,2013-10-12 11:57:00,
2013-10-12 08:02:00,44.0,42.1,30.21,SSE,158,0.0,0.0,93,0.00,,---,0.00,VWS V14.01,2013-10-12 12:02:00,
2013-10-12 08:07:00,44.0,42.1,30.21,SSE,158,0.0,1.0,93,0.00,,---,0.00,VWS V14.01,2013-10-12 12:07:00,
2013-10-12 08:12:00,45.0,42.8,30.21,SE,135,1.0,1.0,92,0.00,,---,0.00,VWS V14.01,2013-10-12 12:12:00,
2013-10-12 08:17:00,45.0,42.8,30.21,ESE,112,1.0,2.0,92,0.00,,---,0.00,VWS V14.01,2013-10-12 12:17:00,
2013-10-12 08:23:00,45.0,42.8,30.21,East,90,1.0,3.0,92,0.00,,---,0.00,VWS V14.01,2013-10-12 12:23:00,
2013-10-12 08:28:00,45.0,42.8,30.21,East,90,1.0,3.0,92,0.00,,---,0.00,VWS V14.01,2013-10-12 12:28:00,
2013-10-12 08:33:00,46.0,43.8,30.21,East,90,0.0,3.0,92,0.00,,---,0.00,VWS V14.01,2013-10-12 12:33:00,
2013-10-12 08:38:00,46.0,43.5,30.21,ESE,112,0.0,3.0,91,0.00,,---,0.00,VWS V14.01,2013-10-12 12:38:00,
2013-10-12 08:43:00,47.0,44.2,30.21,ESE,112,0.0,1.0,90,0.00,,---,0.00,VWS V14.01,2013-10-12 12:43:00,
2013-10-12 08:48:00,47.0,44.2,30.21,ESE,112,0.0,1.0,90,0.00,,---,0.00,VWS V14.01,2013-10-12 12:48:00,
2013-10-12 08:53:00,47.0,43.9,30.21,East,90,0.0,1.0,89,0.00,,---,0.00,VWS V14.01,2013-10-12 12:53:00,
2013-10-12 08:58:00,47.0,43.6,30.21,ENE,68,0.0,1.0,88,0.00,,---,0.00,VWS V14.01,2013-10-12 12:58:00,
2013-10-12 09:03:00,48.0,44.3,30.21,ENE,68,1.0,1.0,87,0.00,,---,0.00,VWS V14.01,2013-10-12 13:03:00,
2013-10-12 09:08:00,48.0,44.3,30.21,East,90,0.0,1.0,87,0.00,,---,0.00,VWS V14.01,2013-10-12 13:08:00,
2013-10-12 09:13:00,48.0,44.0,30.21,SE,135,1.0,1.0,86,0.00,,---,0.00,VWS V14.01,2013-10-12 13:13:00,
2013-10-12 09:18:00,49.0,44.1,30.21,SE,135,1.0,2.0,83,0.00,,---,0.00,VWS V14.01,2013-10-12 13:18:00,
2013-10-12 09:24:00,49.0,43.8,30.21,SE,135,1.0,1.0,82,0.00,,---,0.00,VWS V14.01,2013-10-12 13:24:00,
2013-10-12 09:29:00,50.0,44.4,30.21,ESE,112,1.0,1.0,81,0.00,,---,0.00,VWS V14.01,2013-10-12 13:29:00,
2013-10-12 09:34:00,50.0,44.4,30.21,ESE,112,1.0,1.0,81,0.00,,---,0.00,VWS V14.01,2013-10-12 13:34:00,
2013-10-12 09:39:00,51.0,45.4,30.21,ESE,112,0.0,1.0,81,0.00,,---,0.00,VWS V14.01,2013-10-12 13:39:00,
2013-10-12 09:44:00,51.0,44.7,30.21,SE,135,1.0,1.0,79,0.00,,---,0.00,VWS V14.01,2013-10-12 13:44:00,
2013-10-12 09:49:00,52.0,44.7,30.20,SE,135,0.0,2.0,76,0.00,,---,0.00,VWS V14.01,2013-10-12 13:49:00,
2013-10-12 09:54:00,52.0,44.3,30.20,ESE,112,0.0,2.0,75,0.00,,---,0.00,VWS V14.01,2013-10-12 13:54:00,
2013-10-12 09:59:00,53.0,44.6,30.20,ESE,112,0.0,2.0,73,0.00,,---,0.00,VWS V14.01,2013-10-12 13:59:00,
2013-10-12 10:04:00,54.0,45.5,30.20,ENE,68,1.0,1.0,73,0.00,,---,0.00,VWS V14.01,2013-10-12 14:04:00,
2013-10-12 10:09:00,55.0,46.5,30.20,NNE,22,2.0,3.0,73,0.00,,---,0.00,VWS V14.01,2013-10-12 14:09:00,
2013-10-12 10:15:00,56.0,47.1,30.21,NNE,22,1.0,4.0,72,0.00,,---,0.00,VWS V14.01,2013-10-12 14:15:00,
2013-10-12 10:20:00,57.0,47.3,30.20,North,0,2.0,4.0,70,0.00,,---,0.00,VWS V14.01,2013-10-12 14:20:00,
2013-10-12 10:25:00,58.0,48.3,30.20,North,0,1.0,3.0,70,0.00,,---,0.00,VWS V14.01,2013-10-12 14:25:00,
2013-10-12 10:30:00,59.0,49.2,30.20,North,0,1.0,3.0,70,0.00,,---,0.00,VWS V14.01,2013-10-12 14:30:00,
2013-10-12 10:35:00,60.0,49.0,30.19,North,0,1.0,3.0,67,0.00,,---,0.00,VWS V14.01,2013-10-12 14:35:00,
2013-10-12 10:40:00,61.0,49.2,30.19,NNW,338,2.0,3.0,65,0.00,,---,0.00,VWS V14.01,2013-10-12 14:40:00,
2013-10-12 10:45:00,62.0,49.7,30.19,NNW,338,0.0,3.0,64,0.00,,---,0.00,VWS V14.01,2013-10-12 14:45:00,
2013-10-12 10:50:00,64.0,52.8,30.19,SE,135,6.0,8.0,67,0.00,,---,0.00,VWS V14.01,2013-10-12 14:50:00,
2013-10-12 10:55:00,65.0,52.5,30.19,ESE,112,3.0,8.0,64,0.00,,---,0.00,VWS V14.01,2013-10-12 14:55:00,
2013-10-12 11:01:00,66.0,53.1,30.19,ESE,112,2.0,3.0,63,0.00,,---,0.00,VWS V14.01,2013-10-12 15:01:00,
2013-10-12 11:06:00,66.0,52.6,30.19,East,90,3.0,8.0,62,0.00,,---,0.00,VWS V14.01,2013-10-12 15:06:00,
2013-10-12 11:11:00,66.0,52.6,30.19,SE,135,4.0,8.0,62,0.00,,---,0.00,VWS V14.01,2013-10-12 15:11:00,
2013-10-12 11:16:00,67.0,53.6,30.19,East,90,5.0,8.0,62,0.00,,---,0.00,VWS V14.01,2013-10-12 15:16:00,
2013-10-12 11:21:00,67.0,53.1,30.19,SE,135,8.0,9.0,61,0.00,,---,0.00,VWS V14.01,2013-10-12 15:21:00,
2013-10-12 11:26:00,67.0,53.1,30.19,East,90,3.0,9.0,61,0.00,,---,0.00,VWS V14.01,2013-10-12 15:26:00,
2013-10-12 11:31:00,67.0,52.7,30.19,ESE,112,3.0,9.0,60,0.00,,---,0.00,VWS V14.01,2013-10-12 15:31:00,
2013-10-12 11:36:00,68.0,53.2,30.19,East,90,3.0,9.0,59,0.00,,---,0.00,VWS V14.01,2013-10-12 15:36:00,
2013-10-12 11:41:00,69.0,54.1,30.19,ESE,112,3.0,5.0,59,0.00,,---,0.00,VWS V14.01,2013-10-12 15:41:00,
2013-10-12 11:46:00,69.0,54.1,30.19,East,90,1.0,6.0,59,0.00,,---,0.00,VWS V14.01,2013-10-12 15:46:00,
2013-10-12 11:51:00,69.0,53.2,30.19,ESE,112,6.0,8.0,57,0.00,,---,0.00,VWS V14.01,2013-10-12 15:51:00,
2013-10-12 11:56:00,70.0,54.1,30.19,SE,135,6.0,8.0,57,0.00,,---,0.00,VWS V14.01,2013-10-12 15:56:00,
2013-10-12 12:01:00,69.0,52.2,30.19,SSE,158,10.0,10.0,55,0.00,,---,0.00,VWS V14.01,2013-10-12 16:01:00,
2013-10-12 12:06:00,70.0,53.6,30.19,ENE,68,4.0,10.0,56,0.00,,---,0.00,VWS V14.01,2013-10-12 16:06:00,
2013-10-12 12:12:00,70.0,53.6,30.18,South,180,5.0,10.0,56,0.00,,---,0.00,VWS V14.01,2013-10-12 16:12:00,
2013-10-12 12:17:00,71.0,53.5,30.18,ESE,112,3.0,10.0,54,0.00,,---,0.00,VWS V14.01,2013-10-12 16:17:00,
2013-10-12 12:22:00,71.0,52.5,30.18,ENE,68,3.0,4.0,52,0.00,,---,0.00,VWS V14.01,2013-10-12 16:22:00,
2013-10-12 12:27:00,71.0,53.0,30.18,ESE,112,1.0,10.0,53,0.00,,---,0.00,VWS V14.01,2013-10-12 16:27:00,
2013-10-12 12:32:00,71.0,52.0,30.18,East,90,5.0,10.0,51,0.00,,---,0.00,VWS V14.01,2013-10-12 16:32:00,
2013-10-12 12:37:00,72.0,53.4,30.19,SSE,158,6.0,10.0,52,0.00,,---,0.00,VWS V14.01,2013-10-12 16:37:00,
2013-10-12 12:42:00,72.0,53.4,30.18,East,90,2.0,6.0,52,0.00,,---,0.00,VWS V14.01,2013-10-12 16:42:00,
2013-10-12 12:47:00,72.0,51.8,30.18,SE,135,3.0,9.0,49,0.00,,---,0.00,VWS V14.01,2013-10-12 16:47:00,
2013-10-12 12:52:00,72.0,52.4,30.18,SSE,158,3.0,9.0,50,0.00,,---,0.00,VWS V14.01,2013-10-12 16:52:00,
2013-10-12 12:57:00,72.0,52.9,30.18,ESE,112,3.0,9.0,51,0.00,,---,0.00,VWS V14.01,2013-10-12 16:57:00,
2013-10-12 13:03:00,72.0,52.4,30.18,South,180,3.0,7.0,50,0.00,,---,0.00,VWS V14.01,2013-10-12 17:03:00,
2013-10-12 13:08:00,73.0,53.8,30.17,ESE,112,3.0,7.0,51,0.00,,---,0.00,VWS V14.01,2013-10-12 17:08:00,
2013-10-12 13:13:00,72.0,52.4,30.17,SE,135,4.0,8.0,50,0.00,,---,0.00,VWS V14.01,2013-10-12 17:13:00,
2013-10-12 13:18:00,73.0,53.8,30.17,ESE,112,1.0,10.0,51,0.00,,---,0.00,VWS V14.01,2013-10-12 17:18:00,
2013-10-12 13:23:00,73.0,53.3,30.16,ENE,68,5.0,10.0,50,0.00,,---,0.00,VWS V14.01,2013-10-12 17:23:00,
2013-10-12 13:28:00,73.0,52.2,30.16,East,90,6.0,10.0,48,0.00,,---,0.00,VWS V14.01,2013-10-12 17:28:00,
2013-10-12 13:33:00,74.0,54.2,30.16,ENE,68,3.0,10.0,50,0.00,,---,0.00,VWS V14.01,2013-10-12 17:33:00,
2013-10-12 13:38:00,75.0,54.6,30.16,ENE,68,3.0,10.0,49,0.00,,---,0.00,VWS V14.01,2013-10-12 17:38:00,
2013-10-12 13:44:00,75.0,54.0,30.16,NE,45,3.0,9.0,48,0.00,,---,0.00,VWS V14.01,2013-10-12 17:44:00,
2013-10-12 13:49:00,75.0,54.0,30.16,North,0,3.0,9.0,48,0.00,,---,0.00,VWS V14.01,2013-10-12 17:49:00,
2013-10-12 13:54:00,75.0,53.4,30.16,ESE,112,3.0,10.0,47,0.00,,---,0.00,VWS V14.01,2013-10-12 17:54:00,
2013-10-12 13:59:00,75.0,52.8,30.15,SE,135,0.0,10.0,46,0.00,,---,0.00,VWS V14.01,2013-10-12 17:59:00,
2013-10-12 14:04:00,75.0,53.4,30.15,NE,45,2.0,7.0,47,0.00,,---,0.00,VWS V14.01,2013-10-12 18:04:00,
2013-10-12 14:09:00,75.0,52.2,30.15,ESE,112,1.0,7.0,45,0.00,,---,0.00,VWS V14.01,2013-10-12 18:09:00,
2013-10-12 14:15:00,76.0,53.2,30.15,ENE,68,3.0,7.0,45,0.00,,---,0.00,VWS V14.01,2013-10-12 18:15:00,
2013-10-12 14:20:00,76.0,54.3,30.15,East,90,4.0,8.0,47,0.00,,---,0.00,VWS V14.01,2013-10-12 18:20:00,
2013-10-12 14:25:00,77.0,54.7,30.15,NE,45,4.0,5.0,46,0.00,,---,0.00,VWS V14.01,2013-10-12 18:25:00,
2013-10-12 14:30:00,76.0,53.2,30.15,ENE,68,3.0,6.0,45,0.00,,---,0.00,VWS V14.01,2013-10-12 18:30:00,
2013-10-12 14:35:00,77.0,53.4,30.15,South,180,2.0,6.0,44,0.00,,---,0.00,VWS V14.01,2013-10-12 18:35:00,
2013-10-12 14:40:00,77.0,54.1,30.15,NE,45,4.0,5.0,45,0.00,,---,0.00,VWS V14.01,2013-10-12 18:40:00,
2013-10-12 14:46:00,77.0,52.8,30.15,ENE,68,6.0,8.0,43,0.00,,---,0.00,VWS V14.01,2013-10-12 18:46:00,
2013-10-12 14:51:00,77.0,52.2,30.14,NE,45,3.0,8.0,42,0.00,,---,0.00,VWS V14.01,2013-10-12 18:51:00,
2013-10-12 14:56:00,77.0,53.4,30.14,NNE,22,3.0,8.0,44,0.00,,---,0.00,VWS V14.01,2013-10-12 18:56:00,
2013-10-12 15:01:00,78.0,54.3,30.14,ENE,68,6.0,6.0,44,0.00,,---,0.00,VWS V14.01,2013-10-12 19:01:00,
2013-10-12 15:06:00,77.0,53.4,30.14,ESE,112,6.0,8.0,44,0.00,,---,0.00,VWS V14.01,2013-10-12 19:06:00,
2013-10-12 15:11:00,78.0,53.7,30.14,SSE,158,1.0,9.0,43,0.00,,---,0.00,VWS V14.01,2013-10-12 19:11:00,
2013-10-12 15:16:00,77.0,53.4,30.14,SE,135,7.0,9.0,44,0.00,,---,0.00,VWS V14.01,2013-10-12 19:16:00,
2013-10-12 15:22:00,77.0,51.5,30.14,ESE,112,2.0,4.0,41,0.00,,---,0.00,VWS V14.01,2013-10-12 19:22:00,
2013-10-12 15:27:00,77.0,51.5,30.14,SE,135,4.0,7.0,41,0.00,,---,0.00,VWS V14.01,2013-10-12 19:27:00,
2013-10-12 15:32:00,78.0,54.3,30.14,ENE,68,3.0,7.0,44,0.00,,---,0.00,VWS V14.01,2013-10-12 19:32:00,
2013-10-12 15:37:00,78.0,53.7,30.14,NE,45,2.0,7.0,43,0.00,,---,0.00,VWS V14.01,2013-10-12 19:37:00,
2013-10-12 15:42:00,78.0,54.3,30.14,NE,45,1.0,6.0,44,0.00,,---,0.00,VWS V14.01,2013-10-12 19:42:00,
2013-10-12 15:47:00,78.0,53.7,30.13,East,90,5.0,7.0,43,0.00,,---,0.00,VWS V14.01,2013-10-12 19:47:00,
2013-10-12 15:52:00,78.0,52.4,30.14,SSE,158,3.0,10.0,41,0.00,,---,0.00,VWS V14.01,2013-10-12 19:52:00,
2013-10-12 15:57:00,77.0,51.5,30.13,SSE,158,12.0,12.0,41,0.00,,---,0.00,VWS V14.01,2013-10-12 19:57:00,
2013-10-12 16:03:00,77.0,52.2,30.13,South,180,5.0,6.0,42,0.00,,---,0.00,VWS V14.01,2013-10-12 20:03:00,
2013-10-12 16:08:00,77.0,51.5,30.13,SE,135,4.0,10.0,41,0.00,,---,0.00,VWS V14.01,2013-10-12 20:08:00,
2013-10-12 16:13:00,77.0,51.5,30.13,SE,135,1.0,10.0,41,0.00,,---,0.00,VWS V14.01,2013-10-12 20:13:00,
2013-10-12 16:18:00,77.0,51.5,30.13,SE,135,5.0,11.0,41,0.00,,---,0.00,VWS V14.01,2013-10-12 20:18:00,
2013-10-12 16:23:00,77.0,50.9,30.13,SE,135,11.0,11.0,40,0.00,,---,0.00,VWS V14.01,2013-10-12 20:23:00,
2013-10-12 16:28:00,76.0,48.6,30.13,SE,135,10.0,13.0,38,0.00,,---,0.00,VWS V14.01,2013-10-12 20:28:00,
2013-10-12 16:33:00,76.0,48.6,30.14,SE,135,6.0,13.0,38,0.00,,---,0.00,VWS V14.01,2013-10-12 20:33:00,
2013-10-12 16:39:00,76.0,49.3,30.14,SSE,158,5.0,13.0,39,0.00,,---,0.00,VWS V14.01,2013-10-12 20:39:00,
2013-10-12 16:44:00,76.0,49.3,30.14,ESE,112,8.0,11.0,39,0.00,,---,0.00,VWS V14.01,2013-10-12 20:44:00,
2013-10-12 16:49:00,76.0,47.9,30.14,SSE,158,10.0,12.0,37,0.00,,---,0.00,VWS V14.01,2013-10-12 20:49:00,
2013-10-12 16:54:00,76.0,47.9,30.14,SSE,158,6.0,12.0,37,0.00,,---,0.00,VWS V14.01,2013-10-12 20:54:00,
2013-10-12 16:59:00,76.0,46.4,30.14,SSE,158,8.0,14.0,35,0.00,,---,0.00,VWS V14.01,2013-10-12 20:59:00,
2013-10-12 17:04:00,76.0,46.4,30.14,SSW,202,8.0,12.0,35,0.00,,---,0.00,VWS V14.01,2013-10-12 21:04:00,
2013-10-12 17:09:00,76.0,46.4,30.14,South,180,6.0,12.0,35,0.00,,---,0.00,VWS V14.01,2013-10-12 21:09:00,
2013-10-12 17:14:00,76.0,47.2,30.14,SE,135,11.0,12.0,36,0.00,,---,0.00,VWS V14.01,2013-10-12 21:14:00,
2013-10-12 17:19:00,76.0,47.2,30.14,SSE,158,9.0,12.0,36,0.00,,---,0.00,VWS V14.01,2013-10-12 21:19:00,
2013-10-12 17:25:00,75.0,46.3,30.14,SSE,158,5.0,11.0,36,0.00,,---,0.00,VWS V14.01,2013-10-12 21:25:00,
2013-10-12 17:30:00,75.0,46.3,30.14,SSE,158,6.0,13.0,36,0.00,,---,0.00,VWS V14.01,2013-10-12 21:30:00,
2013-10-12 17:35:00,75.0,47.0,30.14,South,180,5.0,13.0,37,0.00,,---,0.00,VWS V14.01,2013-10-12 21:35:00,
2013-10-12 17:40:00,75.0,47.0,30.15,South,180,6.0,13.0,37,0.00,,---,0.00,VWS V14.01,2013-10-12 21:40:00,
2013-10-12 17:45:00,75.0,47.7,30.14,SW,225,6.0,7.0,38,0.00,,---,0.00,VWS V14.01,2013-10-12 21:45:00,
2013-10-12 17:50:00,74.0,47.5,30.14,South,180,5.0,8.0,39,0.00,,---,0.00,VWS V14.01,2013-10-12 21:50:00,
2013-10-12 17:55:00,74.0,48.2,30.14,South,180,6.0,8.0,40,0.00,,---,0.00,VWS V14.01,2013-10-12 21:55:00,
2013-10-12 18:00:00,73.0,47.3,30.14,SSE,158,7.0,9.0,40,0.00,,---,0.00,VWS V14.01,2013-10-12 22:00:00,
2013-10-12 18:06:00,73.0,47.9,30.15,South,180,6.0,9.0,41,0.00,,---,0.00,VWS V14.01,2013-10-12 22:06:00,
2013-10-12 18:11:00,73.0,48.6,30.15,South,180,8.0,9.0,42,0.00,,---,0.00,VWS V14.01,2013-10-12 22:11:00,
2013-10-12 18:16:00,73.0,48.6,30.15,SSE,158,3.0,9.0,42,0.00,,---,0.00,VWS V14.01,2013-10-12 22:16:00,
2013-10-12 18:21:00,72.0,48.3,30.15,SSE,158,8.0,8.0,43,0.00,,---,0.00,VWS V14.01,2013-10-12 22:21:00,
2013-10-12 18:26:00,72.0,48.3,30.16,South,180,5.0,9.0,43,0.00,,---,0.00,VWS V14.01,2013-10-12 22:26:00,
2013-10-12 18:31:00,72.0,48.9,30.16,SSE,158,6.0,9.0,44,0.00,,---,0.00,VWS V14.01,2013-10-12 22:31:00,
2013-10-12 18:36:00,71.0,48.6,30.16,South,180,5.0,9.0,45,0.00,,---,0.00,VWS V14.01,2013-10-12 22:36:00,
2013-10-12 18:42:00,71.0,48.6,30.16,SE,135,7.0,11.0,45,0.00,,---,0.00,VWS V14.01,2013-10-12 22:42:00,
2013-10-12 18:47:00,70.0,48.3,30.16,SSE,158,7.0,12.0,46,0.00,,---,0.00,VWS V14.01,2013-10-12 22:47:00,
2013-10-12 18:52:00,70.0,47.7,30.16,SSE,158,13.0,13.0,45,0.00,,---,0.00,VWS V14.01,2013-10-12 22:52:00,
2013-10-12 18:57:00,70.0,46.5,30.16,SE,135,5.0,15.0,43,0.00,,---,0.00,VWS V14.01,2013-10-12 22:57:00,
2013-10-12 19:02:00,70.0,46.5,30.16,SE,135,6.0,11.0,43,0.00,,---,0.00,VWS V14.01,2013-10-12 23:02:00,
2013-10-12 19:07:00,70.0,46.5,30.16,ESE,112,6.0,13.0,43,0.00,,---,0.00,VWS V14.01,2013-10-12 23:07:00,
2013-10-12 19:12:00,69.0,46.2,30.16,ESE,112,5.0,13.0,44,0.00,,---,0.00,VWS V14.01,2013-10-12 23:12:00,
2013-10-12 19:17:00,69.0,46.8,30.16,ESE,112,2.0,13.0,45,0.00,,---,0.00,VWS V14.01,2013-10-12 23:17:00,
2013-10-12 19:22:00,68.0,46.5,30.17,SE,135,5.0,7.0,46,0.00,,---,0.00,VWS V14.01,2013-10-12 23:22:00,
2013-10-12 19:27:00,68.0,46.5,30.17,SE,135,6.0,7.0,46,0.00,,---,0.00,VWS V14.01,2013-10-12 23:27:00,
2013-10-12 19:33:00,68.0,47.0,30.17,SSE,158,6.0,8.0,47,0.00,,---,0.00,VWS V14.01,2013-10-12 23:33:00,
2013-10-12 19:38:00,68.0,47.0,30.17,ESE,112,5.0,9.0,47,0.00,,---,0.00,VWS V14.01,2013-10-12 23:38:00,
2013-10-12 19:43:00,68.0,47.0,30.18,SSE,158,3.0,7.0,47,0.00,,---,0.00,VWS V14.01,2013-10-12 23:43:00,
2013-10-12 19:48:00,68.0,47.6,30.18,South,180,8.0,10.0,48,0.00,,---,0.00,VWS V14.01,2013-10-12 23:48:00,
2013-10-12 19:53:00,67.0,46.7,30.18,SSE,158,8.0,10.0,48,0.00,,---,0.00,VWS V14.01,2013-10-12 23:53:00,
2013-10-12 19:58:00,68.0,47.0,30.18,SE,135,6.0,10.0,47,0.00,,---,0.00,VWS V14.01,2013-10-12 23:58:00,
2013-10-12 20:46:00,65.0,47.5,30.20,SE,135,5.0,5.0,53,0.00,,---,0.00,VWS V14.01,2013-10-13 00:46:00,
2013-10-12 20:52:00,64.0,47.5,30.20,SE,135,4.0,8.0,55,0.00,,---,0.00,VWS V14.01,2013-10-13 00:52:00,
2013-10-12 20:57:00,64.0,48.0,30.21,SE,135,5.0,8.0,56,0.00,,---,0.00,VWS V14.01,2013-10-13 00:57:00,
2013-10-12 21:02:00,64.0,47.0,30.21,SE,135,5.0,6.0,54,0.00,,---,0.00,VWS V14.01,2013-10-13 01:02:00,
2013-10-12 21:07:00,64.0,47.0,30.21,SSE,158,5.0,8.0,54,0.00,,---,0.00,VWS V14.01,2013-10-13 01:07:00,
2013-10-12 21:12:00,64.0,46.0,30.21,ESE,112,4.0,8.0,52,0.00,,---,0.00,VWS V14.01,2013-10-13 01:12:00,
2013-10-12 21:17:00,64.0,45.5,30.21,ESE,112,5.0,10.0,51,0.00,,---,0.00,VWS V14.01,2013-10-13 01:17:00,
2013-10-12 21:22:00,64.0,45.5,30.21,SSE,158,6.0,8.0,51,0.00,,---,0.00,VWS V14.01,2013-10-13 01:22:00,
2013-10-12 21:27:00,65.0,45.9,30.21,SE,135,5.0,11.0,50,0.00,,---,0.00,VWS V14.01,2013-10-13 01:27:00,
2013-10-12 21:33:00,64.0,44.5,30.21,ESE,112,4.0,11.0,49,0.00,,---,0.00,VWS V14.01,2013-10-13 01:33:00,
2013-10-12 21:38:00,64.0,45.5,30.21,SSE,158,3.0,11.0,51,0.00,,---,0.00,VWS V14.01,2013-10-13 01:38:00,
2013-10-12 21:43:00,64.0,46.0,30.21,SE,135,5.0,5.0,52,0.00,,---,0.00,VWS V14.01,2013-10-13 01:43:00,
2013-10-12 21:48:00,63.0,46.1,30.21,SE,135,3.0,9.0,54,0.00,,---,0.00,VWS V14.01,2013-10-13 01:48:00,
2013-10-12 21:53:00,62.0,45.2,30.22,ESE,112,3.0,9.0,54,0.00,,---,0.00,VWS V14.01,2013-10-13 01:53:00,
2013-10-12 21:57:00,62.0,46.1,30.22,SE,135,1.0,9.0,56,0.00,,---,0.00,VWS V14.01,2013-10-13 01:57:00,
2013-10-12 22:02:00,61.0,44.7,30.22,SE,135,1.0,3.0,55,0.00,,---,0.00,VWS V14.01,2013-10-13 02:02:00,
2013-10-12 22:07:00,61.0,45.7,30.22,SE,135,1.0,3.0,57,0.00,,---,0.00,VWS V14.01,2013-10-13 02:07:00,
2013-10-12 22:12:00,60.0,45.2,30.22,SSE,158,0.0,3.0,58,0.00,,---,0.00,VWS V14.01,2013-10-13 02:12:00,
2013-10-12 22:17:00,60.0,46.5,30.23,WSW,248,1.0,3.0,61,0.00,,---,0.00,VWS V14.01,2013-10-13 02:17:00,
2013-10-12 22:23:00,59.0,46.0,30.23,NNW,338,1.0,2.0,62,0.00,,---,0.00,VWS V14.01,2013-10-13 02:23:00,
2013-10-12 22:28:00,59.0,46.0,30.23,NNW,338,0.0,2.0,62,0.00,,---,0.00,VWS V14.01,2013-10-13 02:28:00,
2013-10-12 22:33:00,59.0,46.4,30.23,NNW,338,1.0,2.0,63,0.00,,---,0.00,VWS V14.01,2013-10-13 02:33:00,
2013-10-12 22:38:00,58.0,45.9,30.22,SE,135,2.0,3.0,64,0.00,,---,0.00,VWS V14.01,2013-10-13 02:38:00,
2013-10-12 22:43:00,58.0,45.9,30.22,ESE,112,1.0,3.0,64,0.00,,---,0.00,VWS V14.01,2013-10-13 02:43:00,
2013-10-12 22:48:00,58.0,45.9,30.22,SE,135,1.0,3.0,64,0.00,,---,0.00,VWS V14.01,2013-10-13 02:48:00,
2013-10-12 22:53:00,57.0,45.4,30.22,SE,135,0.0,3.0,65,0.00,,---,0.00,VWS V14.01,2013-10-13 02:53:00,
2013-10-12 22:58:00,57.0,45.0,30.22,ESE,112,3.0,7.0,64,0.00,,---,0.00,VWS V14.01,2013-10-13 02:58:00,
2013-10-12 23:04:00,57.0,45.8,30.22,SSE,158,1.0,4.0,66,0.00,,---,0.00,VWS V14.01,2013-10-13 03:04:00,
2013-10-12 23:09:00,57.0,46.2,30.23,SE,135,0.0,4.0,67,0.00,,---,0.00,VWS V14.01,2013-10-13 03:09:00,
2013-10-12 23:14:00,57.0,46.6,30.23,SE,135,0.0,4.0,68,0.00,,---,0.00,VWS V14.01,2013-10-13 03:14:00,
2013-10-12 23:19:00,56.0,46.0,30.23,North,0,0.0,4.0,69,0.00,,---,0.00,VWS V14.01,2013-10-13 03:19:00,
2013-10-12 23:24:00,56.0,46.0,30.22,ENE,68,1.0,3.0,69,0.00,,---,0.00,VWS V14.01,2013-10-13 03:24:00,
2013-10-12 23:29:00,56.0,46.0,30.22,East,90,1.0,3.0,69,0.00,,---,0.00,VWS V14.01,2013-10-13 03:29:00,
2013-10-12 23:34:00,56.0,46.4,30.22,SE,135,3.0,3.0,70,0.00,,---,0.00,VWS V14.01,2013-10-13 03:34:00,
2013-10-12 23:40:00,56.0,46.7,30.22,East,90,1.0,4.0,71,0.00,,---,0.00,VWS V14.01,2013-10-13 03:40:00,
2013-10-12 23:45:00,55.0,45.8,30.22,ESE,112,2.0,3.0,71,0.00,,---,0.00,VWS V14.01,2013-10-13 03:45:00,
2013-10-12 23:50:00,55.0,45.4,30.21,ESE,112,2.0,5.0,70,0.00,,---,0.00,VWS V14.01,2013-10-13 03:50:00,
2013-10-12 23:55:00,55.0,45.4,30.21,ESE,112,2.0,6.0,70,0.00,,---,0.00,VWS V14.01,2013-10-13 03:55:00,